Voltar ao catálogo

FENGYUN 1C DEB

AtivoSSO
NORAD 30182·DEBRIS·🇨🇳 China

Lançado May 10, 1999 de Taiyuan Satellite Launch Center

Loading…

Próximas Passagens (próximas 24 horas)

TLE

AtualizadoSource: Space-Track

Época: Sep 13, 2026, 10:17 UTC

1 30182U 99025UP  26256.42885441  .00000275  00000-0  22550-3 0  9997
2 30182  99.0285 307.7444 0074405 349.3378  23.5750 13.96561999  1310

Acompanhe FENGYUN 1C DEB em tempo real com AllMySat

Download on the App Store